Theta_e
281 276 273 275 276 277 277 278 278 277 279 279 278 276 276 276 277 279 280 283 279 278 276 278 278 278 279 281 282 279 278 279 279 278 277 277 277 277 277 277 276 276 276 277 278 278 279 280 279 280 280 280 280 280 280 280 280 280 280 281 280 280 280 280 279 279 279 278 278 278 278 277 278 279 280 280 279 280 280 281 280 281 281 280 280 281
279 276 275 275 277 278 279 277 278 279 278 279 277 274 276 274 275 279 278 280 278 278 275 274 276 278 280 281 281 278 278 277 278 277 277 277 277 278 277 276 275 276 277 278 278 278 279 280 280 280 280 281 279 280 280 279 279 279 281 280 279 279 278 278 278 279 278 278 277 277 277 277 277 277 278 278 279 280 281 281 281 281 280 280 280 281
276 276 279 279 278 278 276 277 278 279 278 277 275 274 271 275 276 278 277 277 277 278 278 278 277 279 279 281 278 276 276 277 278 279 278 277 277 277 276 276 276 276 276 276 277 279 278 280 280 279 280 279 280 280 279 280 279 279 280 280 279 278 278 278 279 280 278 278 278 277 277 277 277 278 279 279 280 280 280 279 279 280 279 280 279 279
276 276 278 279 278 281 281 276 278 276 276 275 273 272 274 276 273 275 276 275 278 276 278 278 275 277 278 276 276 277 276 275 277 278 278 278 278 276 276 276 276 275 275 276 277 278 278 278 279 279 279 279 279 279 279 279 278 279 280 279 278 278 278 278 278 280 278 278 278 278 277 277 277 277 280 279 279 279 278 278 279 278 280 279 279 278
280 280 278 277 278 282 279 275 277 275 275 274 274 273 272 274 276 274 277 279 279 278 276 275 276 277 273 275 275 277 276 277 276 277 277 277 277 277 276 276 276 275 276 276 277 278 278 278 278 278 279 279 279 279 279 279 278 279 278 278 278 278 278 277 278 276 276 277 276 277 277 277 276 277 276 276 277 278 279 279 278 278 279 279 279 278
279 279 279 280 275 274 276 276 276 276 274 274 275 276 277 276 274 276 277 276 276 274 275 275 270 272 271 273 273 275 275 275 275 275 274 274 274 275 274 275 276 276 276 277 277 278 278 278 278 279 279 278 278 278 279 278 279 278 278 278 277 277 277 277 276 276 277 276 275 274 274 273 273 272 273 273 274 275 275 275 277 278 278 278 277 276
280 280 278 280 278 277 276 275 275 277 273 271 278 275 275 274 275 275 276 275 271 270 272 277 269 267 275 274 273 274 274 273 273 273 273 273 274 274 274 274 274 275 276 278 278 278 278 278 278 278 278 279 278 278 279 278 278 278 277 277 277 276 277 277 276 276 277 275 275 274 273 273 272 272 273 274 274 275 275 277 276 277 277 277 277 277
280 280 278 277 278 277 276 275 276 275 274 275 274 275 276 276 276 277 276 274 274 276 276 274 273 266 268 272 272 274 273 273 272 272 272 272 273 273 273 274 275 276 277 277 277 278 278 278 278 278 279 278 278 279 278 277 277 277 277 276 277 277 278 277 276 276 276 275 274 273 273 273 273 272 272 273 274 276 277 276 276 276 277 277 277 276
279 279 278 279 278 277 278 276 277 276 276 278 276 277 277 277 277 277 275 274 272 269 269 272 274 267 265 271 274 274 273 272 272 271 272 272 272 273 274 275 276 277 277 277 277 277 277 278 278 279 278 279 278 278 277 277 276 276 276 277 277 276 276 276 276 277 275 275 274 273 273 272 273 273 274 275 276 275 276 274 274 274 275 276 276 276
281 280 281 281 280 277 277 276 275 277 277 277 277 277 277 276 276 276 274 271 267 265 266 271 272 265 270 272 272 274 273 272 272 272 272 272 272 273 274 275 276 277 277 278 277 278 278 278 278 279 279 278 278 278 278 277 276 276 276 276 277 275 275 275 274 274 273 273 274 273 272 272 272 273 273 274 274 274 273 273 273 273 274 274 275 275
278 281 284 280 278 279 278 278 276 277 278 278 277 277 277 275 272 271 268 267 266 260 264 270 272 270 267 270 268 270 270 269 272 273 273 273 273 273 274 275 276 276 277 277 277 278 278 279 279 279 278 278 278 277 276 276 275 275 275 275 274 274 274 274 273 273 273 273 273 273 272 272 271 272 272 271 272 272 272 272 272 273 274 275 275 275
278 280 281 280 283 280 279 279 278 276 278 277 275 272 276 274 271 266 264 261 258 266 269 268 270 267 264 268 269 270 270 269 271 270 271 272 272 273 274 275 276 276 277 277 277 277 278 278 278 278 277 277 277 276 275 275 275 275 275 274 273 273 273 273 273 273 273 273 273 273 272 272 272 272 271 271 271 272 272 272 272 273 274 274 274 273
275 279 278 279 284 280 277 277 277 275 275 278 275 274 271 267 265 265 266 263 261 263 269 269 268 268 267 268 271 271 271 271 272 273 272 272 272 273 274 276 276 277 277 277 277 277 277 277 277 277 277 276 275 274 274 274 274 273 273 273 272 272 272 273 272 272 273 273 272 272 272 272 272 272 272 272 271 272 271 271 271 271 271 273 273 272
274 275 278 278 280 280 279 276 276 275 276 277 273 267 265 259 257 260 264 262 265 272 269 267 269 268 272 270 271 270 271 272 272 272 273 273 273 274 275 276 276 277 277 277 277 277 277 277 276 276 276 275 274 273 273 273 274 273 273 272 272 272 272 272 272 272 272 272 272 272 272 272 272 271 272 271 271 271 271 271 271 271 271 272 272 271
268 271 275 277 276 279 278 278 278 275 276 274 274 273 264 265 260 261 258 263 265 269 273 268 264 259 266 268 272 272 272 272 273 273 274 275 274 275 275 276 277 276 277 277 277 277 277 277 276 276 275 274 273 273 273 273 273 273 272 272 272 272 272 272 272 272 272 272 272 272 272 272 271 271 271 271 271 271 270 270 270 271 272 272 271 271
273 272 278 278 278 279 279 278 278 277 274 274 271 273 267 264 266 263 262 259 263 265 265 262 263 262 268 272 275 274 273 273 274 274 275 273 273 275 275 275 276 276 277 277 277 276 276 276 276 276 275 274 272 272 272 273 273 273 272 272 272 272 272 272 273 272 272 271 272 272 271 271 271 271 271 271 271 270 271 271 271 271 271 271 271 273
270 270 275 279 277 279 279 279 278 277 266 273 274 266 272 273 271 265 269 270 265 263 266 264 268 272 273 272 271 273 273 273 274 275 273 273 274 274 274 275 276 276 276 276 276 276 276 276 276 275 275 273 274 274 274 274 273 272 272 272 272 272 272 272 272 272 271 271 271 271 271 270 270 270 269 269 269 270 271 271 271 271 271 272 273 273
267 274 278 276 276 280 277 278 278 276 278 272 265 272 277 275 272 264 263 264 264 263 267 268 267 267 266 265 270 273 273 273 274 273 271 273 274 274 275 275 276 276 276 276 276 276 276 276 276 276 275 274 274 274 274 273 273 273 272 272 271 272 272 272 271 271 271 271 270 270 270 270 270 269 269 270 270 271 271 271 271 271 271 271 272 272
273 269 274 276 276 277 277 277 276 278 277 278 275 275 271 260 264 263 260 260 259 260 263 267 268 269 267 268 270 270 271 272 272 273 273 273 274 274 275 275 276 276 276 276 276 276 275 275 276 275 274 274 274 274 274 274 273 273 272 272 272 272 272 271 272 271 271 271 270 270 270 269 269 269 270 270 271 271 270 270 270 270 271 271 271 272
276 266 272 276 276 277 277 275 271 272 275 276 276 275 272 272 266 264 265 264 261 263 261 263 268 266 266 269 271 270 271 272 272 272 272 273 274 274 275 275 275 275 275 275 275 275 275 274 273 273 273 274 275 274 274 273 273 272 272 272 272 272 272 271 271 270 270 270 270 269 269 269 269 270 270 270 270 269 269 270 270 270 271 271 271 271
273 273 264 273 275 275 274 274 273 273 268 271 269 265 268 264 269 268 260 262 262 263 264 264 262 264 271 273 272 272 271 273 272 272 273 273 274 275 275 275 275 275 274 274 274 274 273 273 273 274 275 276 275 274 274 272 272 272 272 271 272 271 271 270 270 270 269 269 269 269 268 268 269 269 270 270 269 269 269 269 270 270 270 270 270 270
268 268 267 273 273 273 275 276 276 276 275 273 269 271 269 269 267 263 263 262 257 259 261 261 260 268 273 275 273 273 273 273 274 273 273 274 274 274 274 274 274 274 274 274 274 273 273 274 274 275 275 274 273 273 272 273 272 272 271 272 271 271 270 269 269 269 268 268 268 268 268 268 269 269 269 268 269 269 269 269 269 269 270 270 270 271
276 270 269 269 272 274 277 276 274 274 275 273 273 273 267 263 263 263 261 263 264 265 265 266 264 266 273 274 274 273 274 274 274 274 273 273 273 273 274 274 274 274 273 274 274 274 274 274 274 275 274 273 272 272 272 272 272 272 272 272 271 270 269 269 269 268 268 268 267 267 268 268 268 269 268 268 268 268 268 268 269 270 270 270 270 271
281 265 264 272 274 276 277 273 276 271 276 274 272 270 269 268 267 266 266 268 263 261 261 264 263 268 272 275 274 275 275 274 274 274 273 273 273 273 273 273 273 273 274 274 274 273 274 274 274 274 273 272 272 271 271 272 272 272 272 270 269 268 268 268 268 268 267 267 267 267 267 268 268 268 268 267 267 268 268 268 269 269 269 269 270 270
268 268 268 268 270 272 272 273 273 272 274 273 272 270 267 268 266 263 263 256 260 261 266 264 260 265 274 275 277 275 274 273 272 273 273 272 272 273 273 273 273 273 273 272 272 272 272 273 272 272 272 271 271 271 271 271 271 270 269 269 268 268 268 267 267 267 267 266 266 267 267 267 267 267 267 267 267 267 268 268 268 268 268 268 268 269
272 270 267 262 265 263 264 265 267 270 273 274 272 272 269 265 265 264 260 258 260 264 267 264 263 270 275 276 274 273 272 272 273 273 273 273 272 272 272 272 272 272 271 271 271 271 271 271 272 272 271 271 271 271 271 271 269 268 268 268 267 267 266 266 266 266 266 266 266 266 265 266 266 267 267 267 267 266 266 266 266 266 266 266 267 268
267 269 271 266 264 268 270 273 277 277 274 269 271 270 268 265 262 261 261 261 262 265 264 267 269 269 270 272 271 271 271 270 270 271 271 271 272 271 272 271 271 270 270 269 270 270 270 270 270 271 271 270 270 271 270 268 268 267 267 266 266 266 266 266 266 266 266 266 266 265 265 265 266 266 266 266 265 265 265 265 265 265 265 266 267 267
264 267 268 270 270 273 275 275 276 275 271 272 269 268 267 266 262 261 262 264 269 265 261 269 270 268 269 270 270 270 270 270 270 270 271 271 270 270 271 271 271 269 268 269 269 269 269 269 269 269 269 269 270 269 268 268 267 266 266 265 265 265 265 265 265 266 266 265 264 264 264 265 266 266 265 265 264 264 264 264 265 265 266 267 267 267
265 264 265 265 267 271 272 273 274 273 271 271 268 267 266 267 264 260 260 267 269 265 263 269 270 268 269 270 270 271 271 270 270 270 270 270 270 271 270 269 268 267 267 267 267 268 268 268 268 268 268 269 268 267 267 266 266 265 265 265 264 264 264 265 265 265 265 264 263 264 265 265 265 265 264 264 263 263 263 264 264 265 266 266 266 267
268 264 262 262 269 271 272 272 273 271 270 269 265 268 268 267 266 266 266 269 269 268 270 270 269 268 269 270 271 271 271 271 271 271 270 268 269 270 269 267 267 266 266 266 267 268 268 267 267 268 267 266 267 266 265 265 264 264 263 263 263 264 264 265 265 264 263 263 263 264 264 264 264 263 263 262 262 262 263 263 264 265 265 265 266 266
270 267 271 260 264 270 272 272 269 270 269 267 268 267 269 268 267 268 269 270 270 270 270 269 267 266 271 273 271 272 272 272 271 269 268 268 269 268 267 266 266 266 266 267 268 267 267 267 266 266 266 266 266 266 264 264 263 263 262 262 263 263 265 265 263 263 263 263 263 263 263 264 263 262 262 262 262 262 263 263 263 264 264 264 265 265
267 267 260 257 265 268 271 270 272 272 268 265 265 267 267 267 265 268 266 270 269 267 268 266 263 264 270 271 271 271 271 270 268 268 267 268 269 267 266 265 265 265 266 267 266 266 266 265 265 264 264 264 264 265 263 262 262 262 261 262 263 264 264 263 263 262 262 262 262 263 263 262 261 261 261 261 261 262 262 263 263 263 263 264 264 264
263 263 266 260 266 267 272 271 270 270 266 259 259 266 268 270 270 271 271 272 271 269 263 260 263 269 270 271 269 269 270 269 268 267 266 267 268 267 265 265 265 265 266 265 266 266 264 264 263 263 263 263 263 262 262 262 261 261 261 262 263 264 263 262 262 262 262 262 262 262 261 261 260 260 260 261 261 262 262 262 262 263 263 263 264 264
261 264 264 261 262 265 271 269 270 266 266 265 269 271 271 269 269 267 268 270 271 269 267 269 269 270 270 269 268 268 268 268 268 268 269 268 267 266 265 265 265 266 265 265 266 265 264 263 263 263 263 263 262 262 262 262 261 261 262 263 263 262 261 261 261 261 261 261 260 260 260 260 260 260 260 261 261 262 262 261 262 262 263 263 264 264
263 262 265 256 262 264 265 268 268 264 263 269 271 273 272 272 271 269 271 273 270 269 269 269 269 269 270 270 269 269 270 269 269 268 268 268 267 266 265 265 264 265 265 265 264 264 263 263 262 263 262 261 261 261 260 260 261 261 262 262 262 261 261 261 261 260 259 259 259 259 259 259 259 259 260 261 261 261 261 261 261 262 262 263 263 263
266 266 263 262 258 262 263 261 260 264 270 269 270 272 274 273 273 272 270 272 270 270 270 268 269 270 270 270 270 271 269 269 269 268 268 268 268 266 265 264 264 265 264 264 264 263 263 262 262 261 260 260 260 260 260 260 260 261 261 262 261 261 261 260 259 259 259 258 258 258 259 259 259 259 260 260 260 260 260 260 261 261 262 262 263 264
268 261 261 265 260 264 265 263 264 271 269 268 266 269 270 268 269 268 264 268 269 270 270 269 269 270 270 269 270 270 269 268 265 265 268 268 267 267 266 265 265 265 265 264 263 263 263 263 261 260 260 259 259 259 259 260 260 261 261 260 260 260 259 259 258 258 257 257 258 258 258 259 259 259 259 259 259 259 259 260 260 261 262 262 263 263
271 269 267 266 263 259 261 264 265 264 262 262 270 273 274 273 273 272 268 266 270 271 272 270 269 270 269 269 269 269 267 262 259 261 266 267 267 266 266 266 266 264 264 264 263 263 262 262 261 260 259 259 259 259 259 260 260 260 260 259 259 258 258 257 256 257 257 257 258 258 258 259 259 258 258 258 258 259 259 260 261 261 262 262 262 263
269 268 262 264 263 260 260 258 260 262 264 267 269 272 273 274 274 273 267 262 270 272 272 271 270 269 269 269 268 267 262 257 258 261 265 266 266 266 265 266 264 263 263 263 262 262 262 261 260 260 259 258 258 258 259 260 260 260 259 258 257 257 256 256 256 256 256 257 257 258 258 259 259 258 258 258 258 259 259 260 260 261 262 263 263 263
262 259 261 259 259 261 261 259 257 257 262 268 270 272 274 275 274 271 261 262 270 271 272 271 270 269 269 269 267 265 260 255 258 262 266 266 266 266 266 263 261 261 261 262 262 263 261 260 259 258 258 257 257 259 259 260 260 259 257 256 256 255 255 255 256 257 257 257 257 258 258 258 258 258 258 258 258 259 259 260 261 262 262 262 263 263
258 262 260 265 260 263 266 259 261 266 270 270 271 274 274 275 273 263 257 265 272 272 272 272 270 270 270 267 266 261 263 264 264 266 266 266 265 265 265 263 261 261 261 261 261 262 259 259 258 257 257 258 258 259 259 259 258 257 256 256 255 254 255 256 257 257 257 257 257 257 257 258 258 257 258 258 259 259 260 261 261 261 262 262 263 263
260 258 259 258 262 260 258 262 264 266 268 271 274 274 274 272 261 259 270 274 272 271 272 272 271 271 269 267 265 264 265 266 266 266 265 264 265 264 262 261 260 261 262 261 262 260 258 258 258 257 257 258 258 259 259 258 256 255 255 254 254 255 256 256 256 256 256 256 256 257 257 257 257 258 258 258 259 259 260 261 261 261 262 262 262 263
263 263 262 261 263 264 265 264 264 262 265 273 274 275 274 267 267 272 272 273 273 272 272 271 271 270 269 266 266 265 265 265 264 264 264 264 263 261 260 259 259 260 259 259 259 259 258 257 257 257 257 257 258 258 259 257 255 254 254 253 254 256 256 256 256 256 256 256 256 256 256 256 257 257 258 258 259 259 259 260 261 261 262 262 263 263
265 266 261 258 260 264 262 260 260 269 275 274 274 269 271 272 273 272 272 270 273 272 271 271 271 270 268 266 264 264 264 263 263 264 263 262 261 260 260 259 260 259 258 259 259 258 257 257 256 256 256 257 258 258 258 256 254 253 253 253 255 256 256 256 255 255 255 255 255 255 255 256 256 257 257 258 259 259 259 259 260 261 262 262 263 264
270 266 264 268 263 265 265 268 274 277 275 274 274 273 273 273 273 273 273 272 271 271 273 271 269 268 267 265 265 264 262 263 263 263 262 261 259 259 258 258 259 258 258 258 258 258 257 256 255 255 256 256 257 258 256 256 253 253 252 254 255 255 255 255 254 254 254 254 254 254 255 255 256 257 258 258 258 258 259 259 260 260 261 263 264 265
273 274 272 270 268 271 274 276 277 277 276 275 274 274 273 273 274 273 272 271 272 272 271 269 268 267 266 266 264 263 262 263 262 262 261 260 259 259 258 258 258 258 258 258 258 257 257 256 255 255 255 256 257 256 255 255 254 253 253 255 255 255 255 254 253 253 253 254 254 254 254 254 255 257 258 258 258 259 259 259 260 260 261 263 264 266
269 272 272 268 270 270 267 273 274 274 274 274 274 273 274 274 273 273 272 272 272 271 270 269 268 266 265 265 264 262 262 262 261 260 260 259 258 257 257 257 257 257 257 256 257 257 256 255 254 254 254 254 255 255 255 254 254 254 254 255 255 255 254 253 253 253 253 253 253 254 254 254 255 257 257 257 258 259 260 260 260 261 262 264 265 267
271 273 271 272 270 269 272 276 275 273 273 274 273 272 272 273 273 273 273 273 271 270 269 268 267 265 266 264 264 262 262 262 260 259 258 258 257 257 257 257 256 256 256 257 257 256 255 254 253 253 254 253 254 255 254 254 254 254 254 255 255 254 254 253 253 253 252 252 253 253 254 255 257 257 256 257 258 258 259 260 261 262 263 265 266 267
273 273 266 271 270 272 274 275 272 273 274 272 273 274 273 273 272 272 272 271 269 268 268 267 267 266 265 264 264 262 261 260 259 259 257 257 257 256 256 256 256 256 256 256 256 255 254 253 253 253 253 253 254 254 254 253 254 254 254 255 254 254 252 252 253 253 252 253 253 253 255 255 256 256 256 256 257 259 260 260 261 263 265 267 268 269
273 270 271 270 268 267 267 271 271 268 268 272 273 273 272 273 272 271 271 269 268 267 266 265 265 266 265 264 263 262 260 259 259 258 257 257 256 256 256 256 256 256 255 256 255 255 254 253 253 253 253 253 253 253 253 253 253 254 254 254 254 253 252 252 252 252 252 252 253 253 255 255 255 256 256 256 257 258 259 263 266 266 266 266 269 271
274 274 271 267 265 270 275 273 272 273 273 273 273 273 273 272 271 270 269 267 267 267 266 264 263 263 263 263 263 261 259 259 258 258 256 256 256 257 256 256 255 255 255 255 254 253 253 253 253 253 252 252 253 253 253 252 252 253 254 254 254 253 252 252 251 252 252 252 252 254 255 255 255 255 256 256 257 257 259 260 262 267 269 269 269 271
Wind_Speed
1 7 3 1 3 3 3 3 3 1 2 2 1 3 9 8 12 8 7 13 2 4 6 10 12 15 15 16 14 3 2 5 3 4 6 7 8 8 7 7 8 7 7 5 4 4 4 4 3 3 3 3 4 4 5 6 7 7 5 5 6 5 4 5 5 5 5 6 6 5 6 8 8 8 8 7 7 6 7 7 6 6 6 5 5 4
2 5 2 4 4 4 2 2 2 0 1 2 4 4 9 4 12 10 8 6 1 1 5 3 10 18 16 13 8 5 2 4 6 5 7 9 9 8 9 9 8 6 3 4 4 4 3 3 3 3 4 3 8 7 7 6 6 4 5 3 3 4 3 3 3 5 5 4 6 8 9 10 10 9 9 9 8 9 7 6 6 6 6 7 6 3
6 2 1 2 1 2 4 3 1 2 2 0 3 4 5 10 8 13 10 2 0 1 15 7 13 20 14 16 5 5 4 3 3 9 9 12 10 8 8 9 7 6 5 3 4 2 3 3 2 4 3 5 5 5 4 4 3 2 4 3 2 3 3 3 4 5 6 5 6 6 8 9 10 8 8 9 11 10 9 7 7 6 6 6 5 4
4 2 2 0 2 1 0 2 0 1 0 2 5 4 8 7 6 15 4 3 1 1 13 12 12 18 9 2 5 6 5 2 3 5 7 8 12 10 9 8 8 6 5 5 3 4 3 3 3 2 3 4 3 3 3 3 1 1 3 3 3 4 3 4 5 6 5 6 7 6 7 9 9 11 11 11 10 9 9 8 6 4 6 6 6 4
3 2 2 3 2 1 3 2 1 4 7 3 3 5 6 8 6 5 14 14 9 3 3 7 11 11 4 1 2 6 5 8 6 8 7 6 6 7 7 6 5 6 5 5 6 4 5 3 2 2 2 2 2 2 1 1 1 1 3 3 3 4 4 4 4 5 5 6 6 7 8 8 10 8 9 10 10 10 9 10 9 10 8 8 8 4
5 1 1 0 2 4 2 6 1 2 7 6 6 7 8 7 8 10 12 14 13 7 2 6 9 10 2 1 1 4 5 7 5 8 6 8 9 7 8 6 5 6 5 7 6 5 3 2 1 2 3 3 3 3 2 1 2 2 4 3 4 3 3 4 4 5 5 6 7 9 9 11 10 11 10 10 12 12 12 11 10 10 9 8 5 4
2 1 2 1 1 3 3 3 1 1 3 5 8 2 4 4 6 10 15 8 10 10 3 3 2 13 5 6 5 3 6 7 5 7 5 6 6 6 5 5 5 5 5 4 3 3 3 3 3 5 5 5 5 3 1 1 2 3 4 4 3 3 3 4 4 5 4 5 6 7 8 8 10 11 9 10 11 12 11 9 9 10 9 8 8 6
1 2 3 4 4 4 4 4 1 2 4 7 2 2 5 10 11 14 12 5 11 4 5 2 4 6 10 4 1 1 7 5 5 4 5 5 5 5 4 5 5 5 4 3 3 2 3 4 6 7 6 5 5 4 3 2 3 4 5 4 5 3 4 4 4 3 4 6 7 8 8 8 9 10 12 12 11 11 10 10 10 11 11 10 8 6
2 5 4 5 4 2 3 1 1 3 1 8 3 3 10 9 14 13 8 10 3 4 11 2 1 3 4 3 1 1 5 3 3 3 3 4 4 4 5 6 6 4 4 2 3 3 5 7 7 8 8 6 6 4 3 3 3 4 5 5 5 5 4 4 4 5 4 5 7 7 8 9 9 11 11 11 12 11 9 11 11 12 13 13 10 9
2 1 1 1 0 3 2 2 2 4 6 4 6 6 6 9 7 6 7 6 4 2 9 7 2 1 15 3 3 1 3 2 4 2 3 3 3 4 6 5 3 3 3 3 5 6 7 7 9 9 10 8 5 5 3 3 4 5 5 5 5 6 5 4 4 4 4 5 6 7 9 11 12 12 12 10 12 12 12 12 13 12 13 12 10 8
3 3 3 3 0 1 2 4 4 5 4 6 6 7 9 6 2 3 4 1 3 1 6 2 1 0 11 4 2 4 1 2 2 3 2 2 4 5 3 2 3 4 5 5 6 8 9 10 10 10 9 9 6 5 4 4 5 5 5 6 6 6 5 4 4 4 5 5 6 8 10 12 14 14 13 13 12 13 13 13 13 13 12 9 8 8
6 1 1 1 1 1 1 5 1 1 0 5 5 4 13 4 4 4 2 2 2 10 5 2 1 4 10 3 3 2 5 2 4 5 3 2 4 2 2 3 4 5 6 8 8 10 10 10 9 9 10 9 7 5 5 5 5 6 6 6 6 6 5 4 5 4 6 6 7 7 9 12 12 13 12 14 15 16 17 16 15 14 13 12 11 9
5 2 3 3 2 3 2 3 5 2 3 9 5 9 12 10 8 9 6 9 4 9 4 2 4 7 6 2 1 3 4 7 5 6 7 5 2 3 6 6 6 8 9 9 10 10 9 10 10 10 10 6 5 5 6 7 6 6 6 6 6 6 5 5 5 5 7 7 8 9 10 10 10 12 13 12 17 17 15 15 16 15 16 13 7 7
8 5 4 2 2 2 1 8 10 8 7 10 5 3 7 7 4 9 8 3 8 12 3 1 0 7 7 1 1 1 4 5 10 9 6 4 2 6 9 7 8 10 10 10 11 11 11 11 10 10 10 7 5 4 6 6 6 6 5 5 5 6 5 4 4 5 6 8 8 9 9 9 10 11 11 12 13 13 12 12 14 16 15 9 9 10
8 9 4 5 3 2 3 2 0 4 8 5 3 1 3 2 2 10 1 11 14 16 20 1 3 5 8 2 3 3 4 6 5 5 4 5 3 6 7 8 10 10 11 11 11 11 12 11 11 10 9 8 5 4 6 6 7 6 6 6 6 7 6 5 6 6 7 7 8 8 8 9 10 11 12 11 12 13 13 14 15 15 13 11 12 12
3 6 8 0 5 2 3 0 0 3 0 1 3 3 6 5 2 5 6 4 8 14 10 1 4 3 2 1 3 3 4 4 2 6 6 9 3 7 8 9 11 11 11 11 11 11 12 12 12 10 9 7 2 5 5 7 7 7 7 6 6 7 7 6 7 7 8 8 7 8 10 12 12 14 13 13 13 13 13 15 14 13 12 12 12 10
4 3 1 9 4 0 0 0 2 1 3 4 3 3 4 1 4 6 7 4 5 6 12 1 6 3 1 2 0 2 3 1 1 7 7 7 8 8 9 10 10 10 10 9 10 12 14 13 11 9 9 3 4 6 9 10 9 9 8 6 7 7 7 7 6 7 8 7 8 10 11 11 14 14 14 13 14 14 14 12 12 12 12 12 10 9
1 14 8 2 3 0 0 1 0 3 0 2 3 5 7 4 5 4 8 7 7 10 15 5 11 11 8 9 2 2 3 5 7 9 6 6 10 14 16 15 14 14 13 13 14 15 14 13 12 11 4 3 5 8 9 10 9 8 7 6 7 8 9 7 7 7 7 8 10 10 12 14 14 14 14 12 12 10 11 12 11 11 12 10 9 10
1 9 4 1 3 9 2 1 2 1 2 0 3 1 5 6 9 3 2 10 9 8 10 13 11 9 5 6 2 4 9 10 11 12 15 18 16 16 16 16 16 15 14 14 15 15 14 13 12 8 5 6 8 9 9 9 9 8 7 6 6 8 8 8 7 8 9 9 9 10 13 15 15 12 11 11 13 13 14 14 14 13 13 11 10 11
1 2 7 1 1 7 5 4 6 6 4 1 2 4 1 0 4 5 5 4 4 12 10 18 13 9 1 1 4 4 9 9 9 12 13 15 16 16 16 17 17 15 15 16 16 14 13 10 7 6 8 10 11 10 9 9 8 8 8 6 7 7 7 8 9 8 10 10 11 13 14 14 12 11 12 13 13 13 14 14 14 13 11 11 10 11
2 1 5 6 3 5 6 2 3 3 5 7 6 5 5 1 4 5 0 2 3 9 10 14 18 5 2 1 5 5 8 5 8 12 14 15 15 16 17 16 16 16 16 17 15 13 10 8 8 9 10 9 9 8 7 7 8 8 6 6 6 7 8 9 9 10 11 12 13 14 15 15 13 16 13 13 14 14 13 13 13 11 12 11 10 10
0 0 5 9 11 4 7 1 1 1 1 2 0 4 3 8 10 11 11 1 2 1 9 9 17 10 4 3 5 4 4 5 8 13 15 14 17 18 18 19 18 18 18 17 14 11 10 11 12 12 9 9 10 10 10 10 9 7 6 6 5 6 8 9 11 11 13 13 13 15 15 14 15 13 13 14 14 13 12 12 11 11 12 11 11 11
1 2 0 9 7 9 11 5 1 1 1 2 2 5 2 2 3 2 9 8 7 6 6 8 13 11 2 4 5 4 8 6 12 18 19 20 21 21 21 19 18 17 18 16 16 14 14 12 14 13 14 13 11 11 11 10 10 8 7 6 6 8 9 10 12 13 14 14 14 14 13 14 14 13 14 14 13 13 13 13 13 12 12 12 11 11
3 1 6 6 6 10 6 2 0 3 0 4 1 2 4 6 1 3 7 10 7 6 5 7 10 8 1 0 6 1 14 17 18 19 21 21 21 21 20 20 19 20 16 16 16 16 15 13 15 14 12 11 10 10 11 10 10 8 7 8 10 10 11 11 13 14 15 14 13 13 14 14 14 14 14 13 12 14 13 12 12 12 13 13 12 13
3 2 3 10 11 8 0 1 1 3 2 3 6 2 2 5 5 4 4 2 2 5 4 11 14 14 3 5 13 14 18 21 20 19 18 21 20 18 19 18 19 18 16 19 20 19 18 18 17 15 12 11 12 13 11 13 9 9 10 10 11 11 11 13 13 14 14 13 13 14 15 15 14 14 14 13 12 14 13 13 12 12 14 14 14 14
0 3 3 4 9 11 16 16 17 16 12 6 0 6 6 9 10 9 6 4 4 4 9 8 14 12 17 18 9 14 21 21 19 20 20 18 18 19 20 17 16 16 18 21 21 20 21 18 16 14 13 13 14 13 14 9 10 11 11 12 12 13 14 14 14 14 13 11 12 14 16 15 14 14 14 13 13 13 14 14 15 15 14 14 16 15
0 0 1 4 4 8 10 11 12 11 11 9 15 7 8 3 5 4 3 5 8 14 11 8 13 24 22 20 11 19 21 22 25 23 22 21 19 21 18 13 15 16 18 22 21 19 19 19 18 17 16 16 14 15 10 11 13 13 13 14 13 13 14 15 15 13 12 12 13 14 15 15 14 13 13 12 12 12 13 14 14 14 14 13 13 14
2 1 4 5 7 9 11 13 15 11 12 13 10 8 5 6 4 4 3 9 10 12 18 10 20 22 24 19 16 22 23 22 21 21 21 20 21 21 14 16 19 20 24 22 21 21 20 18 18 20 20 17 16 13 13 13 13 14 13 14 14 15 15 13 13 13 13 12 13 14 15 13 14 12 11 12 13 13 13 13 14 13 12 12 13 13
1 1 5 3 10 7 11 12 14 10 7 5 3 3 7 6 5 7 6 7 8 6 14 23 22 22 18 15 18 20 21 23 22 21 21 23 25 16 17 19 22 23 23 22 22 20 18 21 22 22 20 16 16 16 15 14 14 13 13 13 15 15 15 15 14 13 14 13 14 14 13 14 11 9 12 12 13 13 14 14 13 13 13 12 13 12
1 3 4 3 10 10 12 12 10 8 4 3 2 2 4 7 6 6 8 9 9 13 18 21 21 17 13 14 20 22 21 20 20 18 22 26 25 17 19 21 23 22 21 22 21 20 21 23 20 19 17 18 18 16 17 15 14 14 14 15 15 15 14 13 14 15 15 14 14 14 15 14 10 12 12 13 14 14 14 13 13 13 13 13 13 13
2 5 4 1 3 10 10 8 5 7 4 1 2 3 7 6 4 5 8 12 15 15 16 14 13 14 11 16 19 21 18 19 21 22 25 26 18 19 20 22 20 23 23 20 22 22 24 18 17 18 19 20 19 20 15 14 13 14 15 15 15 14 13 13 15 15 13 14 14 14 14 12 12 13 13 14 14 14 14 14 13 13 14 13 13 14
4 5 2 2 6 9 4 4 11 12 1 4 2 4 5 6 8 8 8 12 14 19 18 15 12 11 13 18 20 21 24 23 21 23 24 23 16 19 20 20 23 23 22 22 24 24 16 16 19 19 20 20 20 17 14 15 15 14 16 16 15 14 14 15 15 14 13 14 14 13 14 14 15 14 15 15 15 14 13 13 14 14 14 13 14 13
1 1 6 3 7 6 6 8 16 18 1 2 3 5 6 8 7 10 10 11 10 5 9 11 11 13 21 22 23 21 20 21 22 21 21 19 16 18 19 22 23 22 22 23 26 16 15 16 17 19 19 17 15 16 17 15 15 16 17 16 15 14 14 15 14 14 14 13 14 15 14 15 16 16 16 14 14 14 13 13 14 14 14 14 13 13
1 1 3 1 2 9 16 13 12 5 12 7 4 1 7 10 10 12 16 18 7 4 6 9 14 21 22 21 22 24 23 21 18 19 18 14 16 16 19 19 19 22 23 23 18 14 15 14 17 17 16 17 18 16 16 17 16 16 15 14 14 14 14 14 14 13 14 15 15 15 15 16 16 16 15 15 14 14 14 15 15 14 13 13 13 13
1 1 3 2 1 8 9 15 15 12 5 2 7 4 9 7 10 14 17 18 6 9 13 17 22 21 22 18 20 21 22 20 19 18 14 12 14 17 20 22 23 23 24 19 19 16 17 18 18 16 16 15 17 16 17 16 16 15 15 14 15 14 15 15 14 14 14 14 14 16 16 16 15 16 15 15 15 15 15 15 14 14 13 12 13 13
2 2 2 1 2 3 2 6 7 10 1 6 5 2 5 4 9 20 19 5 4 8 12 15 18 18 20 24 23 19 16 19 17 10 10 13 15 16 20 21 22 22 22 16 20 15 18 17 17 16 15 16 15 15 15 15 15 16 15 14 14 15 15 15 15 14 14 15 16 16 16 16 16 15 16 16 16 15 15 15 14 14 13 12 12 11
3 4 2 5 2 5 8 5 8 12 6 4 6 5 9 9 12 12 17 14 5 4 14 14 20 22 23 24 25 22 18 18 16 13 9 16 18 18 18 20 21 19 22 13 17 14 16 17 13 14 14 16 16 16 15 16 15 15 15 15 15 15 15 14 14 15 17 16 16 16 16 16 16 16 16 16 16 16 15 15 15 14 11 12 12 12
2 2 3 4 4 3 5 12 10 4 4 2 1 8 5 5 9 8 3 11 4 11 13 18 19 20 23 23 17 18 20 16 18 16 15 18 19 21 20 20 19 19 21 15 16 11 15 13 11 14 12 15 15 15 16 15 15 15 15 15 14 15 14 15 16 16 16 16 17 17 17 16 16 16 16 16 15 16 15 14 13 12 11 12 12 12
5 5 3 2 2 5 3 2 3 5 5 7 4 8 7 8 16 12 6 6 1 15 17 18 22 22 22 19 17 19 15 15 17 16 15 20 20 18 22 19 17 17 19 17 19 15 17 13 13 15 14 15 16 17 17 17 17 16 15 15 14 14 16 16 16 16 17 18 18 17 16 16 16 15 15 15 15 14 15 14 13 12 11 11 11 12
2 3 4 3 1 1 0 1 5 4 8 5 7 8 6 9 9 5 18 16 12 19 17 19 19 21 21 14 16 15 12 15 18 17 20 20 19 19 19 18 20 21 17 18 17 16 14 14 14 16 17 18 18 17 18 17 16 15 13 14 13 16 15 15 16 17 17 17 16 16 16 15 15 15 15 16 15 13 13 12 12 12 12 12 10 11
4 4 3 4 2 4 4 4 3 6 3 5 10 13 7 13 5 9 11 16 17 18 16 16 20 20 14 11 13 13 12 10 15 18 19 19 21 20 15 14 15 17 18 19 20 13 11 12 12 14 16 15 17 17 17 15 15 14 14 15 14 15 16 16 16 15 15 16 16 17 17 14 13 14 15 13 13 13 12 11 12 13 12 12 10 10
2 0 2 1 2 4 3 3 9 10 6 4 6 4 6 13 11 16 9 9 15 15 16 18 20 17 11 11 12 12 15 16 17 15 17 19 20 18 17 19 19 16 15 17 19 11 10 12 15 17 17 16 18 16 16 13 12 12 14 14 14 15 16 16 14 13 14 17 18 16 14 12 14 13 12 13 12 12 12 11 11 10 11 10 11 12
2 1 5 5 3 1 1 4 6 9 2 3 15 9 8 9 8 6 12 12 10 14 15 16 15 13 11 14 15 15 17 18 17 18 19 20 15 16 17 19 18 18 18 19 15 16 16 15 15 17 18 17 17 16 14 13 14 14 14 13 14 16 15 13 12 14 15 15 14 13 13 14 14 13 11 12 12 13 14 12 11 12 11 11 11 12
2 1 2 3 3 3 3 1 3 8 6 8 9 7 5 1 3 4 7 12 11 11 13 13 11 11 12 13 15 16 15 17 16 16 18 13 14 17 17 18 17 14 15 16 12 15 14 15 16 16 17 17 16 15 14 14 14 15 13 13 14 14 11 12 14 14 14 13 12 14 14 14 13 12 11 11 12 12 12 12 12 11 9 10 9 9
5 3 6 4 3 3 6 7 8 9 3 1 4 1 2 1 1 3 5 8 10 11 9 9 11 12 12 14 14 14 14 14 16 16 17 11 14 15 17 17 16 16 18 17 14 16 15 15 18 18 18 17 17 14 12 12 14 14 15 14 14 11 12 14 15 14 13 13 13 14 13 13 12 12 11 11 11 12 12 13 12 11 10 10 9 9
1 3 1 1 6 6 8 13 13 10 7 7 4 3 4 5 4 3 5 8 8 8 6 8 10 12 13 11 12 13 12 15 16 15 15 11 13 14 14 15 14 15 16 16 15 17 16 16 17 18 19 18 17 16 9 13 12 15 15 14 13 12 14 15 15 14 14 14 13 13 13 14 13 11 12 13 10 10 9 10 10 10 11 10 9 9
3 2 3 3 2 5 7 1 3 3 3 4 4 2 0 2 3 3 5 7 7 7 9 7 8 10 11 10 10 13 15 14 14 15 14 14 14 15 15 15 15 16 17 17 17 18 16 15 17 18 18 17 18 15 11 13 12 13 13 12 14 15 15 14 14 14 14 14 13 12 12 13 11 12 12 12 11 10 9 8 8 9 9 9 9 10
3 2 1 6 3 4 9 10 8 3 4 4 1 1 4 4 4 3 4 4 3 6 8 9 9 9 8 8 10 12 14 13 14 13 13 13 13 13 14 15 16 17 16 15 17 16 15 16 17 17 17 15 15 13 9 12 14 13 13 13 15 13 14 14 15 15 14 13 12 10 11 11 15 15 11 12 11 11 11 9 8 9 8 8 9 9
3 4 3 2 4 8 8 7 2 7 8 5 1 0 1 3 3 3 4 2 3 5 7 8 8 8 8 9 10 11 12 11 11 12 13 13 13 13 14 15 15 16 16 17 16 15 16 17 16 16 13 14 13 13 10 13 13 13 16 15 13 13 15 16 16 15 13 12 11 11 12 10 11 11 11 12 12 10 8 8 10 10 9 8 7 9
3 5 2 3 6 5 5 5 1 9 7 4 2 1 2 1 2 4 3 3 4 6 6 8 8 6 7 7 9 9 8 10 11 11 13 12 12 14 15 16 16 16 15 15 14 15 15 15 15 15 12 13 12 11 12 13 12 12 13 12 12 14 15 15 14 13 12 11 11 11 11 11 11 11 11 11 11 13 15 16 18 12 10 9 16 21
7 7 4 4 3 9 6 1 4 5 7 6 3 2 1 1 2 4 5 5 6 5 6 7 8 9 7 7 7 8 6 10 12 13 12 11 12 13 14 15 16 15 14 15 15 14 14 15 16 15 12 13 12 12 12 13 13 12 12 13 14 14 15 15 13 11 10 11 10 12 12 11 11 11 10 10 11 10 10 12 16 22 19 17 19 19
Wind_Direction
328 74 81 283 254 238 250 192 194 207 187 262 272 249 265 277 278 269 262 264 45 306 245 223 248 259 272 283 293 319 197 231 227 171 154 154 155 158 152 133 135 130 142 171 144 119 107 91 74 78 69 67 32 25 12 1 9 12 17 24 10 349 342 350 344 336 330 323 313 297 299 299 302 302 303 304 300 284 268 257 251 255 258 264 269 257
64 61 323 229 221 229 244 191 137 87 116 225 281 284 292 256 281 281 282 306 50 264 279 215 268 275 278 287 303 349 358 253 207 177 164 160 158 161 143 137 136 139 119 124 112 105 93 84 79 77 63 37 26 11 8 3 6 19 11 8 337 341 326 312 310 317 330 320 321 318 319 319 315 316 318 316 314 302 282 274 278 280 286 289 280 266
33 91 263 257 242 113 74 94 131 195 265 238 252 294 322 287 263 264 260 349 277 81 284 289 293 287 300 293 357 19 327 280 238 186 176 156 157 149 136 135 132 130 134 117 117 95 96 81 82 82 50 40 24 358 355 354 358 18 356 318 331 320 313 308 322 333 327 325 320 318 310 314 310 310 312 312 309 304 297 291 291 293 296 293 284 282
19 284 263 247 142 149 2 56 136 26 58 287 314 336 293 295 18 320 254 142 54 344 286 310 310 292 291 18 56 17 10 339 336 132 139 155 154 145 145 138 135 133 125 111 91 76 60 89 76 66 52 23 353 342 354 346 349 328 334 314 320 311 303 313 320 334 321 310 309 306 309 316 320 318 319 313 304 295 290 292 295 310 301 290 287 286
224 271 148 80 62 130 300 351 57 42 324 289 242 252 285 302 276 193 297 315 290 241 293 318 300 297 27 17 352 13 18 44 30 70 74 67 88 108 109 104 112 112 100 88 68 54 47 67 36 55 12 330 334 308 262 303 245 307 305 299 297 295 302 311 316 312 307 310 315 319 323 325 322 318 314 310 303 295 295 299 303 298 295 286 274 267
313 278 163 35 59 39 18 333 58 32 330 313 244 216 252 286 306 297 297 328 322 320 166 21 345 300 327 319 357 349 12 35 5 70 72 99 107 108 103 99 80 80 83 69 61 50 52 40 315 317 266 287 274 252 216 240 259 277 289 279 281 277 279 296 301 308 317 324 331 333 333 329 326 317 314 311 306 305 300 297 299 299 294 277 259 260
225 8 81 344 29 356 17 300 267 78 344 359 295 174 248 271 287 293 299 355 305 302 273 42 287 284 312 325 10 352 56 48 34 61 82 90 92 90 94 93 88 81 70 82 87 70 28 333 277 266 254 266 277 244 191 268 267 268 267 263 272 281 292 299 304 313 317 324 326 324 319 313 309 306 299 291 292 291 292 295 299 299 292 269 263 263
14 333 18 24 15 355 358 0 288 119 13 295 241 45 323 314 301 291 293 260 257 318 294 183 177 244 296 327 339 20 77 67 69 65 71 83 84 83 85 80 81 85 92 58 34 19 293 257 258 261 265 261 262 219 210 229 254 273 274 273 276 278 291 289 288 303 313 323 319 315 309 306 304 298 298 297 293 292 290 295 299 301 296 285 265 267
65 320 28 346 356 24 338 234 260 180 222 273 314 331 298 276 280 283 284 281 275 7 300 334 41 321 248 247 20 57 78 68 116 105 95 80 78 82 75 68 68 61 46 30 313 255 265 274 278 274 273 255 249 228 229 248 258 264 268 272 276 278 283 288 296 307 313 307 309 307 307 307 304 303 302 301 296 300 301 302 303 302 297 288 271 265
333 134 264 146 111 301 243 272 206 157 321 287 302 286 253 265 250 260 272 297 320 73 289 306 155 301 299 16 45 338 98 184 199 157 92 86 71 59 58 50 37 351 338 305 286 269 261 257 266 272 268 260 248 236 236 253 260 263 260 265 272 278 284 284 292 293 297 300 308 311 310 311 312 313 307 303 307 306 306 300 299 296 290 280 272 275
265 292 184 95 192 214 278 258 197 221 235 301 322 327 305 280 337 44 78 5 349 293 248 258 357 154 292 331 288 44 277 243 113 92 63 43 44 42 70 57 316 314 318 290 278 273 267 269 270 271 264 255 250 241 242 255 263 266 271 273 278 277 285 287 284 289 298 306 315 315 316 315 313 310 307 306 302 301 296 294 293 289 284 287 296 295
343 350 79 299 44 107 115 319 82 98 192 12 356 324 323 354 15 49 337 39 85 288 299 227 180 108 300 314 23 322 308 231 150 111 110 57 34 29 321 320 293 291 274 281 273 276 273 272 270 268 265 258 247 246 260 263 260 263 263 269 273 277 281 284 295 305 309 312 311 309 309 309 306 304 305 304 302 302 301 301 301 302 299 288 283 279
349 8 290 329 271 78 312 285 297 4 4 17 354 8 15 317 15 327 8 344 287 265 274 55 45 333 243 261 282 345 22 49 60 86 69 48 15 318 290 280 287 279 288 282 279 281 283 284 284 282 277 260 245 250 254 260 266 270 269 263 259 271 284 292 294 306 311 316 316 312 308 303 301 302 302 301 302 301 300 300 298 297 292 286 277 285
283 293 330 317 18 315 60 14 339 1 339 0 19 27 30 348 360 302 309 256 290 287 262 84 125 256 299 0 252 73 51 67 82 72 65 34 319 302 293 284 286 283 280 281 286 287 288 287 287 283 283 258 248 254 266 270 269 262 259 262 266 275 281 285 296 301 310 313 310 309 306 304 304 304 303 300 296 297 296 296 295 293 290 284 285 292
360 348 318 20 348 356 41 80 121 232 313 302 177 78 186 31 300 302 314 314 302 306 312 267 28 239 316 279 177 116 82 93 79 87 57 345 266 287 287 282 285 287 288 289 289 289 288 289 288 290 279 261 246 272 277 280 278 283 281 278 277 288 299 300 300 307 309 306 305 304 303 305 308 301 300 296 299 297 297 294 288 285 285 287 293 287
221 228 264 227 245 0 13 297 126 310 351 246 181 115 44 284 148 262 251 245 290 304 307 6 219 193 246 213 162 78 88 74 74 32 358 341 273 291 298 296 298 294 291 289 289 291 294 296 297 289 284 263 277 269 274 276 278 276 271 268 270 284 297 301 309 313 312 310 307 310 310 307 303 305 300 297 297 293 289 288 287 288 287 284 280 278
352 291 263 326 37 74 78 167 313 52 5 291 32 334 263 209 139 280 305 277 318 318 281 143 312 316 7 141 326 108 101 89 188 351 357 336 334 308 298 298 301 305 304 303 303 305 304 302 294 286 279 289 282 302 304 300 293 283 277 273 280 291 296 302 307 309 311 309 315 312 307 306 306 302 301 297 292 288 289 287 285 282 280 278 281 283
164 281 314 21 336 307 346 67 11 14 302 39 6 279 290 142 139 120 294 320 326 301 296 330 309 314 353 318 97 134 332 4 344 344 327 321 332 338 334 329 325 323 323 318 311 308 306 304 297 292 306 241 277 298 297 292 288 281 273 274 286 296 305 310 313 315 314 318 316 309 310 311 308 304 297 290 286 288 292 292 291 293 292 293 292 288
108 313 303 323 244 275 320 77 2 344 28 184 257 241 52 331 346 320 45 316 313 302 297 309 313 304 306 300 83 4 359 342 341 340 351 345 337 329 325 324 324 323 321 319 318 318 318 313 310 326 322 310 308 302 293 285 284 284 278 278 286 298 307 314 319 319 322 319 314 314 312 312 308 297 291 295 302 306 304 304 302 298 294 289 288 292
14 258 302 308 10 299 331 54 338 302 330 0 350 355 341 294 295 350 241 277 30 293 325 300 317 319 220 320 66 43 358 345 338 343 337 331 329 325 326 327 324 323 323 325 324 324 329 338 357 328 306 305 304 300 295 290 287 280 278 286 296 303 313 319 324 329 322 319 316 312 312 308 301 299 303 306 308 307 305 302 299 299 300 306 306 298
284 126 266 271 301 352 2 21 324 316 330 335 25 329 350 311 219 195 351 185 259 307 306 307 310 324 358 19 88 66 5 343 336 329 329 325 324 325 324 323 324 325 328 326 332 343 354 340 312 302 300 301 304 304 295 289 285 279 282 290 302 315 322 327 332 330 323 318 315 313 312 309 306 309 309 311 310 306 303 304 306 308 305 301 295 294
356 42 232 315 339 358 289 121 49 346 279 259 180 306 312 338 345 2 313 35 46 15 294 318 289 306 13 101 95 57 356 308 324 328 325 326 327 331 332 333 333 331 330 336 348 340 324 316 315 314 308 311 313 311 312 307 300 293 289 303 320 331 338 338 333 328 320 316 313 312 312 311 310 310 315 314 310 309 310 312 309 303 299 292 288 285
146 192 299 294 259 266 255 296 84 54 162 192 139 301 159 146 78 350 306 302 323 272 269 259 288 309 70 109 122 114 5 337 329 340 338 335 335 335 334 331 330 330 337 346 341 332 328 332 333 323 312 311 312 315 317 317 315 309 312 337 351 349 340 338 328 321 316 313 313 313 312 312 312 316 314 314 313 312 311 307 304 304 303 302 302 301
83 59 312 248 234 266 292 36 170 34 313 4 27 93 48 352 241 252 255 294 285 319 358 294 274 302 11 312 157 104 354 350 346 342 334 333 334 332 330 332 331 339 349 344 340 337 329 327 324 316 310 311 317 327 323 323 317 323 5 9 350 342 338 334 325 318 315 314 313 316 317 316 316 315 315 313 312 311 313 316 318 319 316 316 313 311
21 294 83 316 340 334 192 98 131 229 46 16 310 358 66 352 356 256 215 82 333 239 283 331 299 310 28 309 339 359 347 344 338 334 334 331 331 328 330 332 342 346 345 343 340 338 335 331 330 323 319 328 336 327 324 319 342 31 8 354 345 336 335 327 321 318 316 314 318 323 323 320 318 316 314 314 317 319 321 324 326 326 325 320 313 308
31 276 61 27 348 338 331 334 331 332 336 315 235 344 6 19 343 0 2 309 310 281 319 290 289 290 314 327 351 351 345 332 331 333 335 332 327 332 329 345 350 349 344 342 342 340 336 331 326 329 336 338 329 324 321 354 31 7 357 348 343 334 331 325 321 318 315 317 323 327 323 320 317 316 320 323 329 339 337 330 322 315 309 305 302 300
156 314 165 158 166 252 257 274 288 310 319 316 308 359 346 1 6 63 9 356 306 306 306 285 301 313 317 334 357 342 336 333 334 338 335 334 336 332 335 352 348 347 345 345 340 333 332 331 330 337 337 329 324 328 10 24 7 359 349 342 337 333 324 323 320 319 321 328 332 327 322 318 318 321 329 344 343 334 326 320 314 308 303 298 296 295
67 328 258 205 231 241 261 278 287 309 298 294 324 333 356 8 346 29 359 313 312 322 306 321 318 315 321 334 339 336 335 334 333 334 333 334 335 331 358 346 347 347 349 340 334 333 331 333 337 334 330 326 335 23 17 8 359 351 345 341 335 330 326 321 321 322 329 336 332 324 319 319 324 340 351 341 333 325 320 318 313 307 304 301 298 301
130 198 271 97 258 250 271 270 278 285 268 285 354 356 351 321 354 360 291 273 311 309 294 311 318 317 321 331 332 331 333 332 332 331 337 337 331 347 351 346 347 352 341 337 331 332 337 341 335 329 330 355 22 10 4 353 351 346 345 340 334 328 325 323 324 331 335 334 326 322 324 328 335 353 339 331 324 322 317 312 310 310 310 309 308 306
93 240 246 195 288 288 279 272 273 274 280 1 32 359 308 341 325 283 265 265 284 292 301 307 314 311 316 326 330 329 331 329 329 339 339 337 334 352 343 350 352 342 337 331 333 339 343 339 343 1 18 10 355 358 351 350 349 348 343 338 333 327 322 329 335 336 334 328 327 332 334 329 344 339 332 324 320 316 314 314 313 312 310 308 305 304
68 287 33 334 314 292 277 269 286 284 287 182 53 330 344 307 299 321 325 323 313 305 309 308 316 313 326 330 327 330 330 333 337 344 341 328 337 346 351 349 342 337 331 333 340 341 338 358 7 2 360 355 350 345 353 349 352 343 339 334 329 322 329 339 339 331 328 331 336 334 327 337 339 330 326 320 315 315 317 317 314 311 309 308 307 305
51 287 60 64 341 298 305 323 319 302 19 154 128 1 351 337 343 343 333 330 322 311 320 336 327 318 325 334 331 334 335 337 341 341 334 326 343 349 349 342 339 334 333 340 340 336 358 7 0 354 350 348 346 352 359 350 342 339 334 331 325 328 339 340 333 329 333 337 330 330 343 339 329 324 321 319 317 318 317 315 312 310 308 306 304 302
132 354 334 348 337 278 310 356 320 318 336 97 342 337 346 351 341 318 302 298 308 340 348 325 313 324 334 335 329 330 333 333 336 335 327 327 348 349 344 340 336 336 339 342 335 360 7 360 355 351 346 349 1 358 345 340 337 334 331 325 329 338 344 335 331 336 335 331 337 344 336 331 325 319 318 319 318 318 318 317 315 312 309 307 303 301
91 73 306 171 315 286 323 334 300 304 12 322 172 152 11 347 334 325 324 329 10 88 347 328 327 334 331 333 332 331 334 339 336 328 324 332 344 342 340 339 336 338 340 337 353 4 357 360 353 347 355 360 351 347 341 337 334 330 326 327 339 343 335 333 335 336 341 345 341 335 329 322 320 320 320 320 320 321 320 318 315 312 308 305 304 301
68 23 288 139 269 295 320 345 352 22 316 193 164 58 14 300 306 322 327 340 27 10 348 340 339 330 325 326 330 328 330 330 329 326 324 345 348 343 340 340 339 339 338 348 353 352 355 350 347 354 359 357 348 342 338 338 337 332 331 340 341 340 336 334 341 350 345 338 335 328 321 322 323 323 322 323 324 322 317 314 311 309 308 305 301 300
311 350 276 318 199 261 28 36 357 301 349 154 196 132 348 332 347 333 327 0 57 1 352 340 324 325 329 328 328 330 334 326 317 321 334 349 355 347 342 341 337 339 343 358 348 355 349 350 351 2 354 349 342 339 340 335 332 332 335 337 342 338 341 349 348 342 341 332 329 325 325 326 325 324 326 325 322 317 314 311 309 306 306 302 298 295
130 121 79 320 75 2 308 289 220 266 312 31 3 339 345 345 344 346 315 334 159 336 359 326 331 333 335 335 333 334 334 327 322 325 355 352 347 348 343 337 335 342 345 355 352 346 349 340 6 357 351 345 341 339 337 331 328 330 336 343 339 349 353 346 343 338 333 331 328 328 328 327 326 326 325 322 318 314 312 312 309 306 303 300 297 296
96 27 241 38 311 126 335 324 326 333 341 277 23 316 314 289 304 291 245 302 69 351 351 340 333 334 331 330 336 339 335 331 331 332 348 348 349 342 341 334 341 348 342 341 346 350 348 353 4 350 348 342 336 339 332 325 327 335 340 340 354 353 347 344 337 334 333 330 330 327 327 326 326 325 323 320 315 313 310 307 303 300 302 298 298 296
36 76 121 118 285 26 20 351 309 312 277 155 275 308 325 325 318 328 288 272 169 356 348 345 334 334 333 332 341 340 342 333 319 320 335 343 338 340 334 340 353 346 342 343 339 348 348 2 352 346 343 341 339 337 332 328 335 339 344 356 351 349 343 337 336 335 332 329 327 326 325 326 324 323 320 315 311 309 307 305 305 301 299 298 295 291
30 359 30 23 2 248 23 290 280 222 262 274 322 340 339 307 304 315 337 330 4 349 346 339 333 331 330 341 339 337 341 324 322 322 335 335 333 333 339 352 347 340 342 343 335 345 355 352 345 346 341 340 337 334 333 336 336 345 3 349 350 342 338 337 336 332 327 326 325 325 326 325 323 320 317 313 309 307 305 302 303 305 305 299 295 293
349 332 45 307 239 235 218 253 282 301 288 358 337 319 321 307 290 12 327 305 341 339 338 333 327 329 337 339 343 328 324 308 308 316 326 330 329 334 348 350 342 335 339 341 337 359 359 348 348 343 341 337 335 335 336 338 356 354 353 347 342 341 336 334 331 326 323 324 325 325 325 322 318 316 314 310 305 303 303 307 307 304 302 301 300 292
326 206 277 94 309 299 215 216 241 233 212 233 288 243 330 352 8 329 306 330 323 327 328 330 325 330 347 334 333 321 314 318 317 321 324 329 332 340 343 340 336 336 342 340 335 358 356 349 340 340 339 339 335 337 333 357 359 354 347 342 342 336 333 331 326 322 322 325 325 323 319 316 316 314 311 309 308 308 309 309 306 299 303 304 302 301
220 37 276 291 271 258 15 303 344 344 257 337 347 355 52 17 309 298 314 317 329 320 325 326 327 336 346 328 328 320 318 321 327 328 330 331 342 342 340 338 334 339 345 338 349 352 351 342 344 341 339 337 336 336 344 6 356 350 342 339 334 333 329 326 325 324 323 319 318 317 318 318 317 314 313 311 312 313 312 311 312 310 308 305 307 306
219 40 299 291 168 308 338 55 219 223 323 21 34 338 4 173 275 315 329 314 320 325 326 326 334 338 337 330 323 321 322 324 322 327 330 335 343 337 337 333 333 341 343 336 354 350 352 343 340 339 337 336 336 342 359 352 353 342 338 332 331 325 324 327 328 323 321 319 317 320 319 320 317 312 310 311 316 316 313 315 316 314 312 313 312 315
208 174 179 235 244 131 228 237 265 290 296 195 50 154 178 211 351 331 314 303 314 319 336 333 329 333 336 330 321 325 322 322 320 328 329 340 336 332 333 332 335 343 339 335 346 349 348 343 339 337 336 336 339 349 359 350 348 339 335 331 327 328 331 331 327 324 322 320 320 320 319 316 316 314 315 321 321 320 321 319 323 321 321 320 321 319
245 181 107 92 260 259 264 254 277 303 332 338 24 74 23 343 341 326 312 315 310 318 343 337 335 331 329 329 325 321 321 321 323 326 332 329 331 329 331 328 335 339 337 334 340 345 343 342 339 336 334 334 346 345 358 353 346 337 331 327 327 334 335 328 325 324 324 321 321 320 320 319 318 320 324 325 322 319 314 314 318 318 316 323 323 328
254 179 126 206 266 11 283 169 240 274 318 308 305 194 136 13 316 311 320 309 314 337 333 344 340 329 324 328 326 318 318 323 326 328 328 329 327 330 331 332 335 339 338 336 341 340 342 342 338 334 333 338 347 339 349 348 345 331 326 324 334 337 332 326 325 323 323 323 321 320 321 323 325 329 330 328 327 323 319 317 314 313 314 318 327 331
324 169 182 231 208 180 263 290 302 325 269 275 144 79 335 306 291 293 295 313 345 343 342 333 339 323 324 325 329 324 317 328 331 326 327 327 328 330 331 332 335 335 336 338 339 340 340 339 334 330 334 343 342 335 343 348 338 331 328 332 336 333 330 328 329 327 324 321 322 320 323 324 329 332 328 329 329 328 328 326 320 318 322 325 327 327
175 118 242 183 230 259 265 271 308 286 255 256 217 159 245 277 271 298 301 297 335 339 336 327 324 320 324 320 328 322 320 323 328 327 324 323 326 329 332 333 334 333 334 339 340 343 341 335 332 329 337 343 341 335 339 341 334 330 334 337 333 332 331 330 329 326 322 323 323 324 326 326 329 330 329 327 326 322 315 310 321 323 320 321 319 332
99 237 223 32 303 281 251 283 9 342 322 287 255 307 291 266 294 303 319 340 359 341 336 318 312 314 324 332 329 324 323 320 327 331 326 326 326 326 330 333 335 333 334 338 338 339 335 332 332 328 340 341 337 331 339 337 331 328 331 334 333 333 330 329 327 327 327 327 326 324 328 331 331 331 330 329 329 330 329 327 334 338 333 331 339 340
189 212 137 209 217 283 288 189 173 219 260 264 277 326 349 67 318 329 341 350 342 340 331 322 321 326 330 334 338 330 331 330 329 331 326 327 328 331 332 332 333 334 333 340 339 337 333 333 335 330 341 340 332 332 340 336 329 326 329 336 335 333 331 330 329 326 325 328 328 327 330 329 329 330 329 329 329 327 327 330 333 335 342 345 344 345